Regional Weather Roundup
Issued by NWS Jackson, KY

Home | Current Version | Previous Version | Graphics & Text | Print | Product List | Glossary On
Versions: 1 2 3 4 5 6 7 8 9 10 11 12 13 14 15 16 17 18 19 20 21 22 23 24 25 26 27 28 29 30 31 32 33 34 35 36 37 38 39 40 41 42 43 44 45 46 47 48 49 50
000
ASUS43 KJKL 290810
RWRJKL

EAST KENTUCKY HOURLY WEATHER ROUNDUP
NATIONAL WEATHER SERVICE JACKSON KY
400 AM EDT WED JUL 29 2015

NOTE: "FAIR" INDICATES FEW OR NO CLOUDS BELOW 12,000 FEET WITH
NO SIGNIFICANT WEATHER AND/OR OBSTRUCTIONS TO VISIBILITY.

* THESE REPORTS ARE NOT UNDER NWS QUALITY CONTROL AND MAY NOT
  REPORT WEATHER SUCH AS PRECIPITATION AND FOG.

KYZ079-080-083-085-087-088-110-112-115-119-120-290900
...EASTERN KENTUCKY...

CITY           SKY/WX    TMP DP  RH WIND       PRES   REMARKS
JACKSON        FOG       73  71  93 CALM      30.01S VSB 1/4
LONDON         FOG       71  68  90 E3        30.00F VSB 1/4
SOMERSET*      FOG       68  68 100 CALM      30.01F VSB 1/2
MONTICELLO*    CLEAR     71  71 100 CALM      30.02F
WILLIAMSBURG*  CLOUDY    70  70 100 CALM      30.01
MIDDLESBORO*   CLOUDY    73  73  99 CALM      30.02S
HAZARD APT*    PTSUNNY   72  72 100 CALM      30.00  FOG
BLACK MTN*       N/A     66  66 100 NE2         N/A
PIKEVILLE APT* CLOUDY    73  73 100 CALM      30.02S
BIG SANDY*     PTSUNNY   74  74  98 SE5       30.00S FOG
MOREHEAD APT*  FOG       72  70  94 CALM      30.00F VSB 3/4
$$

KYZ035-036-041-042-044-050-067-078-099-290900
...CENTRAL KENTUCKY...

CITY           SKY/WX    TMP DP  RH WIND       PRES   REMARKS
MT STERLING*   CLEAR     70  70 100 SW3       30.00F FOG
FLEMING/MASON* CLEAR    N/A N/A N/A CALM      29.99  HAZE
DANVILLE*      CLEAR     68  68 100 S3        30.00F
RICHMOND*      CLEAR     70  68  94 SE3       29.98F
LEXINGTON      PTCLDY    71  70  96 S3        29.98F FOG
FRANKFORT      CLEAR     73  71  93 CALM      29.96F
$$

KYZ091>093-OHZ055-061-077-WVZ005-015-034-035-042-290900
...SOUTHERN OHIO/WEST VIRGINIA...

CITY           SKY/WX    TMP DP  RH WIND       PRES   REMARKS
COVINGTON      CLEAR     73  72  96 CALM      29.96F FOG
COLUMBUS       PTCLDY    71  69  93 CALM      29.95F
DAYTON         CLEAR     73  71  93 CALM      29.98S
WILMINGTON     FOG       69  68  96 SW3       29.97F VSB 1/2
HUNTINGTON     CLEAR     72  72 100 CALM      29.97S FOG
CHARLESTON     PTCLDY    72  70  93 CALM      29.97S
PINEVILLE*     CLOUDY    69  69 100 MISG      30.07F FOG
BECKLEY        CLEAR     69  66  90 CALM      30.06F
BLUEFIELD      CLEAR     71  65  81 CALM      30.09F
$$

VAZ002-007-008-TNZ017-027-036-066-071-290900
...SOUTHWEST VIRGINIA/EAST TENNESSEE...

CITY           SKY/WX    TMP DP  RH WIND       PRES   REMARKS
WISE*          CLOUDY    72  72 100 CALM      30.09S FOG
ABINGDON*      PTCLDY    71  69  95 CALM      30.05F
BRISTOL        PTCLDY    70  68  93 CALM      30.02F FOG
KNOXVILLE      MOCLDY    76  73  91 CALM      29.99S
OAK RIDGE      PTCLDY    75  72  90 CALM      30.01S
CROSSVILLE     MOCLDY    73  68  84 CALM      30.05F
NASHVILLE      MOCLDY    74  74 100 SE5       29.98F
$$

...KEY TO REMARKS...
VSB - VISIBILITY IN MILES
WCI - WIND CHILL INDEX
HX  - HEAT INDEX

$$


USA.gov is the U.S. government's official web portal to all federal, state and local government web resources and services.